Location: Napier
(39.4830°S, 176.9170°E)
Time: 03:00:17
(UTC+12:00)

Helios 1A Rocket - Pass Details

Date: 15 August 2020
Orbit: 564 x 585 km, 98.3° (Epoch: 19 September)

Event Time Altitude Azimuth Distance (km) Brightness Sun altitude
Rises 18:10:44 0° 149° (SSE) 2,832 6.0 -7.6°
Reaches altitude 10° 18:13:32 10° 129° (SE) 1,917 5.0 -8.2°
Maximum altitude 18:16:21 18° 86° (E) 1,476 4.4 -8.7°
Drops below altitude 10° 18:19:07 10° 43° (NE) 1,888 5.2 -9.2°
Sets 18:21:51 0° 23° (NNE) 2,771 6.3 -9.7°
